sat.trackr.live / text

‹ back to catalog

STARLINK-35630

NORAD 66131 · 2025-237T

PAYLOAD ACTIVE UNKNOWN

§ Identity

Operator
Country
US
Launch date
2025-10-22
Launch site
AFWTR
Launch vehicle
Mass (kg)
RCS (m²)

Purposes: comms

External: N2YO · Heavens-Above · Gunter

§ Orbital elements

Epoch: 2026-09-20T13:25:54.674976Z

Period
93.85 min
Inclination
53.1554°
Eccentricity
0.0001726
Mean motion
15.34412825 rev/d
Perigee alt
461.5 km
Apogee alt
463.8 km
Semi-major
6,840.8 km
B*
5.1651e-4
RAAN
211.0963°
Arg perigee
89.4332°
Mean anomaly
270.6868°
Rev number
5,249

§ Raw data

STARLINK-356301 66131U 25237T   26263.55966059  .00017122  00000+0  51651-3 0  99932 66131  53.1554 211.0963 0001726  89.4332 270.6868 15.34412825 52491

JSON: /api/v1/satellites/66131 · /tle

For live sub-satellite position, see the globe view (requires WebGL).

§ Visibility from observer

Set your observer location to see the next 7 days of passes ≥ 10°. The values pass through the URL so the page stays shareable.

No JS? Fill the form by hand. The geolocation button needs JavaScript.